DECAYED

STARLINK-1629, 46150 (Decayed)

Orbit data source: Space-Track

STARLINK-1629, 46150 was a payload satellite owned by SpaceX/Seattle (US) in LEO that was launched on Tue, 18 Aug 2020 UTC via an FALCON 9 launch vehicle from the Air Force Eastern Test Range (AFETR). Payload-class satellites include a variety of spacecraft equipped with specific instruments for various scientific and technological missions. These include communications satellites like Starlink; space stations such as the ISS; scientific satellites like the Hubble; Earth observation satellites from companies like Planet Labs, Umbra, and HawkEye 360; GPS; miniature CubeSats for education and research; and military/defense satellites.

Not visible in the next 10 days
Identifier
46150, 2020-057AK
Orbit
Decayed
Country
Flag of USUS
Related business
Manufacturer
SpaceX/Seattle
Mission
Decayed Commercial Communications
Bus & Motor
STARLINK, Unknown motor
Mass
260 kg wet, ~248 kg dry
Launch date (UTC)
2020-08-18 (6 years ago)
Launch vehicle
FALCON 9
Launch site
Air Force Eastern Test Range (AFETR)
Object type
Payload
Rocket body
Debris
Shape & HBR
Box + 1 Pan, 10.1 m
Radar Cross Section
13.562 m², Large (>1 m²)

Expand to show TLE details & history
Last TLE update: 2 weeks ago

TLE from 2 weeks ago
0 STARLINK-1629
1 46150U 20057AK  26047.16666007  .09094962  12313-4  66493-3 0  9995
2 46150  53.0053 328.1819 0004473 228.1948 131.8716 16.39962007304016
Epoch: 2026-02-16T03:59Z
TLE epoch observation values (Epoch: 2026-02-16T03:59:59.430Z)
Latitude
-0.00002°
Longitude
122.01935°
Altitude
168.783 km
Speed
7.805 km/s
True Right ascension
21h 52m 43s
True Declination
0° 00' 00"
Sunlit
Object was in daylight at epoch
Visualization orbit readout
Latitude
Unknown
Longitude
Unknown
Altitude
Unknown
Speed
Unknown
Apparent Right ascension
Unknown
Apparent Declination
Unknown
Sunlit
N/A
Visualization observer readout
Local Sidereal Time
12:45:12
Azimuth
Unknown
Elevation
Unknown
Doppler factor
Unknown
Orbital elements
Apogee altitude
169.125 km
Perigee altitude
163.271 km
Semi-major axis
6,544.335 km
Eccentricity
0.00045
Inclination
53.0053°
RAAN
328.1819°
Arg. of periapsis
228.1948°
True anomaly
131.90975°
Mean anomaly
131.8716°
Eccentric anomaly
131.89068°
Mean motion
4.09963 °/min
Orbital period
87.81 mins
BSTAR
0.00066493
Loading maneuver chart data...
Computing Atmospheric mass density...
Loading historical data...
Loading historical data...
Loading historical data...
Loading historical data...
Loading historical data...
Loading historical data...
Loading historical data...

Documentation

Showing up to 5 results
|